TimeMST,TemperatureF,Dew PointF,Humidity,Sea Level PressureIn,VisibilityMPH,Wind Direction,Wind SpeedMPH,Gust SpeedMPH,PrecipitationIn,Events,Conditions,WindDirDegrees,DateUTC
12:15 AM,21.2,12.2,68,29.76,5.0,WSW,13.8,20.7,N/A,,Overcast,240,2013-01-11 07:15:00
12:35 AM,21.2,10.4,63,29.76,8.0,SW,15.0,21.9,N/A,,Overcast,230,2013-01-11 07:35:00
12:55 AM,19.4,12.2,74,29.76,5.0,SW,13.8,17.3,N/A,,Overcast,220,2013-01-11 07:55:00
1:15 AM,19.4,10.4,68,29.77,10.0,SW,11.5,-,N/A,,Overcast,230,2013-01-11 08:15:00
1:35 AM,19.4,12.2,74,29.76,10.0,SW,15.0,19.6,N/A,,Overcast,220,2013-01-11 08:35:00
1:55 AM,19.4,12.2,74,29.78,10.0,SW,12.7,-,N/A,,Mostly Cloudy,230,2013-01-11 08:55:00
2:15 AM,19.4,12.2,74,29.78,5.0,SW,12.7,19.6,N/A,,Overcast,230,2013-01-11 09:15:00
2:35 AM,19.4,12.2,74,29.79,10.0,SW,13.8,19.6,N/A,,Overcast,230,2013-01-11 09:35:00
2:55 AM,19.4,12.2,74,29.80,5.0,SW,10.4,21.9,N/A,,Overcast,230,2013-01-11 09:55:00
3:15 AM,17.6,10.4,73,29.81,10.0,SW,11.5,21.9,N/A,,Mostly Cloudy,230,2013-01-11 10:15:00
3:35 AM,17.6,10.4,73,29.81,10.0,SW,11.5,19.6,N/A,,Clear,230,2013-01-11 10:35:00
3:55 AM,15.8,10.4,79,29.81,10.0,SW,10.4,16.1,N/A,,Clear,230,2013-01-11 10:55:00
4:15 AM,15.8,10.4,79,29.82,10.0,SW,10.4,16.1,N/A,,Clear,230,2013-01-11 11:15:00
4:35 AM,15.8,8.6,73,29.82,10.0,WSW,13.8,18.4,N/A,,Clear,240,2013-01-11 11:35:00
4:55 AM,15.8,8.6,73,29.83,10.0,WSW,12.7,17.3,N/A,,Clear,240,2013-01-11 11:55:00
5:15 AM,15.8,8.6,73,29.83,10.0,SW,10.4,17.3,N/A,,Clear,230,2013-01-11 12:15:00
5:35 AM,14.0,8.6,79,29.84,10.0,SW,9.2,-,N/A,,Clear,230,2013-01-11 12:35:00
5:55 AM,14.0,6.8,73,29.85,10.0,WSW,12.7,18.4,N/A,,Partly Cloudy,240,2013-01-11 12:55:00
6:15 AM,15.8,6.8,68,29.85,10.0,WSW,10.4,-,N/A,,Mostly Cloudy,240,2013-01-11 13:15:00
6:35 AM,14.0,6.8,73,29.86,10.0,SW,10.4,-,N/A,,Scattered Clouds,230,2013-01-11 13:35:00
6:55 AM,14.0,6.8,73,29.87,10.0,WSW,11.5,-,N/A,,Clear,250,2013-01-11 13:55:00
7:15 AM,14.0,5.0,67,29.87,10.0,WSW,12.7,18.4,N/A,,Clear,250,2013-01-11 14:15:00
7:35 AM,14.0,5.0,67,29.89,10.0,WSW,13.8,-,N/A,,Clear,240,2013-01-11 14:35:00
7:55 AM,14.0,5.0,67,29.90,10.0,WSW,11.5,20.7,N/A,,Clear,240,2013-01-11 14:55:00
8:35 AM,14.0,3.2,62,29.90,10.0,WSW,12.7,19.6,N/A,,Clear,240,2013-01-11 15:35:00
8:55 AM,15.8,5.0,62,29.92,10.0,West,13.8,17.3,N/A,,Clear,260,2013-01-11 15:55:00
9:15 AM,15.8,3.2,58,29.92,10.0,WSW,10.4,18.4,N/A,,Clear,250,2013-01-11 16:15:00
9:35 AM,15.8,1.4,53,29.93,10.0,West,15.0,18.4,N/A,,Clear,270,2013-01-11 16:35:00
9:55 AM,17.6,1.4,49,29.94,10.0,West,8.1,-,N/A,,Clear,270,2013-01-11 16:55:00
10:15 AM,17.6,1.4,49,29.94,10.0,West,11.5,-,N/A,,Clear,260,2013-01-11 17:15:00
10:55 AM,19.4,-0.4,42,29.95,10.0,West,12.7,-,N/A,,Clear,280,2013-01-11 17:55:00
11:15 AM,19.4,1.4,46,29.94,10.0,WSW,9.2,16.1,N/A,,Clear,240,2013-01-11 18:15:00
11:35 AM,19.4,-0.4,42,29.94,10.0,West,13.8,-,N/A,,Clear,270,2013-01-11 18:35:00
11:55 AM,19.4,-0.4,42,29.93,10.0,West,15.0,18.4,N/A,,Clear,280,2013-01-11 18:55:00
12:15 PM,19.4,-0.4,42,29.92,10.0,WSW,11.5,21.9,N/A,,Clear,240,2013-01-11 19:15:00
1:15 PM,21.2,-0.4,39,29.91,10.0,West,11.5,21.9,N/A,,Clear,270,2013-01-11 20:15:00
1:35 PM,21.2,-0.4,39,29.90,10.0,West,16.1,19.6,N/A,,Clear,260,2013-01-11 20:35:00
1:55 PM,21.2,-2.2,36,29.90,10.0,WNW,15.0,-,N/A,,Clear,290,2013-01-11 20:55:00
2:15 PM,21.2,-2.2,36,29.90,10.0,West,13.8,17.3,N/A,,Clear,280,2013-01-11 21:15:00
2:35 PM,21.2,-0.4,39,29.90,10.0,West,16.1,19.6,N/A,,Clear,270,2013-01-11 21:35:00
2:55 PM,23.0,-2.2,33,29.90,10.0,West,10.4,16.1,N/A,,Clear,270,2013-01-11 21:55:00
3:15 PM,23.0,-0.4,36,29.91,10.0,West,15.0,-,N/A,,Clear,260,2013-01-11 22:15:00
3:35 PM,23.0,-0.4,36,29.91,10.0,West,10.4,-,N/A,,Scattered Clouds,270,2013-01-11 22:35:00
3:55 PM,21.2,-2.2,36,29.91,10.0,West,11.5,-,N/A,,Partly Cloudy,280,2013-01-11 22:55:00
4:15 PM,21.2,-2.2,36,29.91,10.0,West,10.4,-,N/A,,Clear,270,2013-01-11 23:15:00
4:35 PM,21.2,-0.4,39,29.91,10.0,West,8.1,-,N/A,,Clear,270,2013-01-11 23:35:00
4:55 PM,19.4,-2.2,39,29.91,10.0,West,9.2,-,N/A,,Clear,270,2013-01-11 23:55:00
5:15 PM,19.4,-0.4,42,29.91,10.0,WNW,11.5,-,N/A,,Mostly Cloudy,290,2013-01-12 00:15:00
5:35 PM,17.6,-0.4,45,29.92,10.0,West,6.9,-,N/A,,Partly Cloudy,270,2013-01-12 00:35:00
5:55 PM,17.6,-0.4,45,29.92,10.0,West,5.8,-,N/A,,Clear,270,2013-01-12 00:55:00
6:15 PM,15.8,-0.4,49,29.92,10.0,West,5.8,-,N/A,,Clear,260,2013-01-12 01:15:00
6:35 PM,15.8,-0.4,49,29.93,10.0,Calm,Calm,-,N/A,,Clear,0,2013-01-12 01:35:00
6:55 PM,14.0,-0.4,53,29.93,10.0,Calm,Calm,-,N/A,,Clear,0,2013-01-12 01:55:00
7:15 PM,14.0,-0.4,53,29.93,10.0,Calm,Calm,-,N/A,,Clear,0,2013-01-12 02:15:00
7:35 PM,14.0,-0.4,53,29.93,10.0,Calm,Calm,-,N/A,,Clear,0,2013-01-12 02:35:00
7:55 PM,8.6,-0.4,67,29.93,10.0,Calm,Calm,-,N/A,,Clear,0,2013-01-12 02:55:00
8:15 PM,10.4,-0.4,62,29.93,10.0,Calm,Calm,-,N/A,,Clear,0,2013-01-12 03:15:00
8:35 PM,8.6,-0.4,67,29.94,10.0,SSE,6.9,-,N/A,,Mostly Cloudy,160,2013-01-12 03:35:00
8:55 PM,8.6,-0.4,67,29.94,10.0,South,5.8,-,N/A,,Mostly Cloudy,170,2013-01-12 03:55:00
9:15 PM,6.8,-0.4,72,29.94,10.0,SSE,6.9,-,N/A,,Partly Cloudy,160,2013-01-12 04:15:00
9:35 PM,6.8,-2.2,67,29.94,10.0,SSE,5.8,-,N/A,,Clear,160,2013-01-12 04:35:00
9:55 PM,5.0,-2.2,72,29.94,10.0,SSE,5.8,-,N/A,,Clear,160,2013-01-12 04:55:00
10:15 PM,5.0,-2.2,72,29.94,10.0,SSE,8.1,-,N/A,,Clear,160,2013-01-12 05:15:00
10:35 PM,5.0,-2.2,72,29.94,10.0,SSE,6.9,-,N/A,,Clear,150,2013-01-12 05:35:00
10:55 PM,5.0,-2.2,72,29.94,10.0,SSE,6.9,-,N/A,,Clear,160,2013-01-12 05:55:00
11:15 PM,3.2,-2.2,78,29.94,10.0,SSE,6.9,-,N/A,,Clear,160,2013-01-12 06:15:00
11:35 PM,1.4,-2.2,85,29.94,10.0,SSE,6.9,-,N/A,,Clear,160,2013-01-12 06:35:00
11:55 PM,1.4,-4.0,78,29.93,10.0,SSE,8.1,-,N/A,,Clear,160,2013-01-12 06:55:00